Location: Home
(42.5358°N, 72.7383°W)
Time: 07:12:39
(UTC-05:00)

Explorer 11/Cluster Stage 4 - Pass Details

Date: 30 November 2021
Orbit: 467 x 1255 km, 28.8° (Epoch: 25 January)

Event Time Altitude Azimuth Distance (km) Brightness Sun altitude
Rises 07:48:25 0° 258° (WSW) 4,186 9.9 6.6°
Reaches altitude 10° 07:52:21 10° 242° (WSW) 3,223 9.5 7.1°
Maximum altitude 07:57:37 19° 202° (SSW) 2,565 9.5 7.9°
Drops below altitude 10° 08:02:40 10° 161° (SSE) 3,063 10.8 8.6°
Sets 08:06:18 0° 145° (SE) 3,909 12.0 9.1°
